Regional Weather Roundup
Issued by NWS Green Bay, WI

Home | Current Version | Previous Version | Text Only | Print | Product List | Glossary On
Versions: 1 2 3 4 5 6 7 8 9 10 11 12 13 14 15 16 17 18 19 20 21 22 23 24 25 26 27 28 29 30 31 32 33 34 35 36 37 38 39 40 41 42 43 44 45 46 47 48 49 50
000
ASUS43 KGRB 261811
RWRGRB

NORTH-CENTRAL AND NORTHEAST WISCONSIN REGIONAL WEATHER ROUNDUP
NATIONAL WEATHER SERVICE GREEN BAY WI
100 PM CDT MON JUN 26 2017

WIZ005-009-010>012-018-019-261900-
NORTH CENTRAL WISCONSIN

CITY           SKY/WX    TMP DP  RH WIND       PRES   REMARKS
IRONWOOD       MOSUNNY   59  46  62 NW13G18   30.10S
MANITOWISH WTR CLOUDY    57  49  76 N10       30.09F
ARBOR VITAE    CLOUDY    55  47  76 N14       30.09R
EAGLE RIVER    CLOUDY    55  43  64 N16G22    30.07R
LAND O LAKES   CLOUDY    55  44  68 N15G21    30.09R
RHINELANDER    CLOUDY    54  46  74 NW9G16    30.08R
PHILLIPS       CLOUDY    56  45  65 N8        30.10F
ANTIGO         CLOUDY    52  48  88 NW16G23   30.05S
TOMAHAWK       NOT AVBL
MERRILL        CLOUDY    54  45  73 N14G23    30.09S
$$

WIZ013-073-261900-
NORTHEAST WISCONSIN

CITY           SKY/WX    TMP DP  RH WIND       PRES   REMARKS
IRON MOUNTAIN  LGT RAIN  54  49  83 N9        30.01R
MARINETTE      LGT RAIN  54  51  90 N8        30.01R
OCONTO         CLOUDY    58  47  66 W10G20    30.01S
$$

WIZ017-030-035>037-045-261900-
CENTRAL WISCONSIN

CITY           SKY/WX    TMP DP  RH WIND       PRES   REMARKS
MEDFORD        CLOUDY    56  44  62 N9        30.10S
WAUSAU         CLOUDY    54  44  69 NW14G21   30.07R
MOSINEE        CLOUDY    55  46  71 NW14G22   30.10R
MARSHFIELD     CLOUDY    57  46  66 NW15G21   30.09F
WISC RAPIDS    CLOUDY    59  45  59 NW16      30.10F
STEVENS POINT  CLOUDY    54  43  65 NW9G20    30.09S
WAUPACA        CLOUDY    59  45  60 NW10G17   30.07R
SHAWANO        CLOUDY    58  47  66 NW6       30.04S
CLINTONVILLE   CLOUDY    59  43  55 NW12G17   30.04F
WAUTOMA        CLOUDY    58  44  60 NW14G22   30.09S
$$

WIZ038-039-048-051-261900-
FOX VALLEY

CITY           SKY/WX    TMP DP  RH WIND       PRES   REMARKS
NWS GREEN BAY  CLOUDY    58  48  69 W17       30.04S
APPLETON       PTSUNNY   57  41  54 W16G22    30.04S
OSHKOSH        CLOUDY    58  43  57 NW21G26   30.05S
FOND DU LAC    CLOUDY    57  43  59 W17G25    30.06F
$$

WIZ022-050-052-261900-
EAST CENTRAL WISCONSIN

CITY           SKY/WX    TMP DP  RH WIND       PRES   REMARKS
EPHRAIM        CLOUDY    57  49  74 W12       29.98S
WASHINGTON ISL RAIN      54  52  92 NW8       29.97S
STURGEON BAY     N/A     57  48  72 NW14        N/A
MANITOWOC      CLOUDY    58  44  60 W17G24    30.03S
SHEBOYGAN      LGT RAIN  58  46  64 NW15G23   30.04S
$$

LMZ563-521-522-541>543-261900-
LAKESHORE

STATION/POSITION TIME  TEMP    WIND        PRES    VSBY  WAVE
                       AIR SEA DIR/SP/G                  HT/PER
                 (UTC) (F)     (DEG/KT/KT) (MB)    (MI)  (FT/S)
SHEBOYGAN LKSHOR 1800   58     300/ 16/ 22 1017.0R
KEWAUNEE LKSHORE 1742   56     260/ 11/ 15 1016.0S
NORTHPORT PIER   1740   57     310/ 11/ 16 1015.2S
N MID LAKE BUOY  1750   54 56  250/  8/  8 1015.5S         1/ 3
S GREEN BAY BUOY 1800   56     270/ 12/ 16 1016.1
CHAMBERS ISLAND  1740   55     250/  3/  9 1015.6S
MENOMINEE LKSHOR 1736          280/  5/ 11 1014.9S
$$




USA.gov is the U.S. government's official web portal to all federal, state and local government web resources and services.